Location: C.E.K. Mees Observatory
(42.7003°N, 77.4088°W)
Time: 03:58:11
(UTC-04:00)

ISS - Pass Details

Date: 10 October 2017
Orbit: 401 x 408 km, 51.6° (Epoch: 22 October)

Event Time Altitude Azimuth Distance (km) Brightness Sun altitude
Rises 21:18:08 0° 299° (WNW) 2,327 1.2 -30.4°
Reaches altitude 10° 21:20:17 10° 292° (WNW) 1,465 -0.1 -30.8°
Enters shadow 21:20:37 12° 289° (WNW) 1,335 -0.4 -30.8°
